TimeCST,TemperatureF,Dew PointF,Humidity,Sea Level PressureIn,VisibilityMPH,Wind Direction,Wind SpeedMPH,Gust SpeedMPH,PrecipitationIn,Events,Conditions,WindDirDegrees,DateUTC
12:30 AM,39.2,23.0,52,30.13,10.0,North,23.0,29.9,N/A,,Overcast,350,2013-03-05 06:30:00
12:50 AM,39.2,23.0,52,30.16,10.0,NNW,21.9,31.1,N/A,,Overcast,340,2013-03-05 06:50:00
1:10 AM,39.2,19.4,45,30.15,10.0,North,23.0,33.4,N/A,,Overcast,350,2013-03-05 07:10:00
1:30 AM,37.4,19.4,48,30.17,10.0,NNW,17.3,27.6,N/A,,Mostly Cloudy,330,2013-03-05 07:30:00
1:50 AM,37.4,19.4,48,30.19,10.0,NNW,19.6,35.7,N/A,,Partly Cloudy,330,2013-03-05 07:50:00
2:10 AM,35.6,19.4,52,30.21,10.0,NNW,21.9,28.8,N/A,,Partly Cloudy,340,2013-03-05 08:10:00
2:30 AM,35.6,17.6,48,30.22,10.0,North,28.8,35.7,N/A,,Partly Cloudy,350,2013-03-05 08:30:00
3:10 AM,32.0,17.6,55,30.24,10.0,NNW,23.0,31.1,N/A,,Partly Cloudy,340,2013-03-05 09:10:00
3:30 AM,32.0,17.6,55,30.25,10.0,NNW,18.4,24.2,N/A,,Clear,340,2013-03-05 09:30:00
3:50 AM,32.0,17.6,55,30.26,10.0,NNW,15.0,-,N/A,,Clear,340,2013-03-05 09:50:00
4:10 AM,32.0,15.8,51,30.26,10.0,NNW,15.0,-,N/A,,Clear,340,2013-03-05 10:10:00
4:30 AM,30.2,17.6,60,30.27,10.0,NNW,11.5,-,N/A,,Clear,330,2013-03-05 10:30:00
4:50 AM,28.4,17.6,64,30.28,10.0,NW,10.4,-,N/A,,Clear,320,2013-03-05 10:50:00
5:10 AM,28.4,17.6,64,30.28,10.0,NNW,10.4,-,N/A,,Clear,330,2013-03-05 11:10:00
5:30 AM,28.4,17.6,64,30.30,10.0,NW,10.4,-,N/A,,Clear,320,2013-03-05 11:30:00
5:50 AM,28.4,15.8,59,30.30,10.0,NNW,13.8,-,N/A,,Clear,330,2013-03-05 11:50:00
6:10 AM,28.4,17.6,64,30.32,10.0,NW,12.7,-,N/A,,Clear,310,2013-03-05 12:10:00
6:50 AM,26.6,17.6,69,30.33,10.0,NW,10.4,-,N/A,,Clear,320,2013-03-05 12:50:00
7:10 AM,24.8,17.6,74,30.35,10.0,WNW,11.5,-,N/A,,Clear,300,2013-03-05 13:10:00
7:30 AM,24.8,17.6,74,30.36,10.0,WNW,11.5,-,N/A,,Clear,290,2013-03-05 13:30:00
7:50 AM,26.6,17.6,69,30.37,10.0,WNW,11.5,-,N/A,,Clear,300,2013-03-05 13:50:00
8:10 AM,28.4,17.6,64,30.37,10.0,WNW,13.8,18.4,N/A,,Clear,300,2013-03-05 14:10:00
8:30 AM,28.4,19.4,69,30.38,10.0,NW,16.1,-,N/A,,Clear,320,2013-03-05 14:30:00
8:50 AM,32.0,17.6,55,30.39,10.0,NW,13.8,23.0,N/A,,Clear,320,2013-03-05 14:50:00
9:10 AM,32.0,17.6,55,30.39,10.0,NNW,16.1,-,N/A,,Clear,330,2013-03-05 15:10:00
9:30 AM,32.0,17.6,55,30.40,10.0,NNW,19.6,26.5,N/A,,Clear,330,2013-03-05 15:30:00
9:50 AM,32.0,17.6,55,30.39,10.0,NNW,18.4,-,N/A,,Clear,330,2013-03-05 15:50:00
10:10 AM,33.8,17.6,52,30.40,10.0,NNW,16.1,26.5,N/A,,Clear,330,2013-03-05 16:10:00
10:30 AM,35.6,17.6,48,30.40,10.0,NNW,19.6,-,N/A,,Clear,340,2013-03-05 16:30:00
10:50 AM,35.6,17.6,48,30.39,10.0,NNW,17.3,24.2,N/A,,Clear,330,2013-03-05 16:50:00
11:10 AM,35.6,17.6,48,30.39,10.0,NNW,16.1,25.3,N/A,,Clear,340,2013-03-05 17:10:00
11:30 AM,35.6,17.6,48,30.39,10.0,NNW,18.4,24.2,N/A,,Clear,330,2013-03-05 17:30:00
11:50 AM,35.6,17.6,48,30.39,10.0,NNW,18.4,24.2,N/A,,Clear,330,2013-03-05 17:50:00
12:10 PM,37.4,19.4,48,30.39,10.0,NNW,16.1,23.0,N/A,,Clear,340,2013-03-05 18:10:00
12:50 PM,37.4,19.4,48,30.38,10.0,NW,17.3,23.0,N/A,,Clear,320,2013-03-05 18:50:00
1:10 PM,39.2,19.4,45,30.37,10.0,NW,13.8,18.4,N/A,,Clear,320,2013-03-05 19:10:00
1:30 PM,39.2,21.2,49,30.36,10.0,NW,17.3,21.9,N/A,,Clear,320,2013-03-05 19:30:00
1:50 PM,39.2,21.2,49,30.36,10.0,NNW,15.0,19.6,N/A,,Clear,330,2013-03-05 19:50:00
2:10 PM,39.2,23.0,52,30.35,10.0,NNW,11.5,-,N/A,,Clear,330,2013-03-05 20:10:00
2:30 PM,39.2,23.0,52,30.34,10.0,North,15.0,-,N/A,,Clear,350,2013-03-05 20:30:00
2:50 PM,41.0,21.2,45,30.34,10.0,NNW,13.8,19.6,N/A,,Clear,340,2013-03-05 20:50:00
3:10 PM,41.0,23.0,49,30.34,10.0,North,11.5,-,N/A,,Clear,360,2013-03-05 21:10:00
3:30 PM,41.0,23.0,49,30.34,10.0,North,9.2,-,N/A,,Clear,360,2013-03-05 21:30:00
3:50 PM,41.0,23.0,49,30.34,10.0,North,15.0,-,N/A,,Clear,360,2013-03-05 21:50:00
4:10 PM,41.0,23.0,49,30.34,10.0,North,13.8,-,N/A,,Clear,360,2013-03-05 22:10:00
4:30 PM,41.0,23.0,49,30.34,10.0,North,9.2,-,N/A,,Clear,10,2013-03-05 22:30:00
4:50 PM,41.0,23.0,49,30.34,10.0,NNE,8.1,-,N/A,,Clear,20,2013-03-05 22:50:00
5:10 PM,41.0,24.8,53,30.34,10.0,NNE,6.9,-,N/A,,Clear,20,2013-03-05 23:10:00
5:30 PM,41.0,24.8,53,30.34,10.0,North,8.1,-,N/A,,Clear,10,2013-03-05 23:30:00
5:50 PM,39.2,23.0,52,30.34,10.0,North,6.9,-,N/A,,Clear,10,2013-03-05 23:50:00
6:10 PM,39.2,24.8,56,30.34,10.0,NNE,5.8,-,N/A,,Clear,30,2013-03-06 00:10:00
6:30 PM,37.4,24.8,60,30.35,10.0,NE,3.5,-,N/A,,Clear,40,2013-03-06 00:30:00
6:50 PM,37.4,24.8,60,30.35,10.0,NNE,3.5,-,N/A,,Clear,30,2013-03-06 00:50:00
7:10 PM,37.4,24.8,60,30.36,10.0,Calm,Calm,-,N/A,,Clear,0,2013-03-06 01:10:00
7:30 PM,35.6,24.8,65,30.36,10.0,Calm,Calm,-,N/A,,Clear,0,2013-03-06 01:30:00
7:50 PM,35.6,24.8,65,30.36,10.0,Calm,Calm,-,N/A,,Clear,0,2013-03-06 01:50:00
8:10 PM,35.6,24.8,65,30.36,10.0,Calm,Calm,-,N/A,,Clear,0,2013-03-06 02:10:00
8:30 PM,35.6,24.8,65,30.37,10.0,Calm,Calm,-,N/A,,Clear,0,2013-03-06 02:30:00
8:50 PM,35.6,23.0,60,30.37,10.0,Calm,Calm,-,N/A,,Clear,0,2013-03-06 02:50:00
9:10 PM,32.0,24.8,75,30.37,10.0,NNW,3.5,-,N/A,,Clear,340,2013-03-06 03:10:00
9:30 PM,33.8,24.8,70,30.38,10.0,NW,4.6,-,N/A,,Clear,320,2013-03-06 03:30:00
9:50 PM,32.0,24.8,75,30.39,10.0,North,3.5,-,N/A,,Clear,360,2013-03-06 03:50:00
10:10 PM,30.2,23.0,75,30.39,10.0,North,5.8,-,N/A,,Clear,10,2013-03-06 04:10:00
10:30 PM,28.4,23.0,80,30.39,10.0,North,3.5,-,N/A,,Clear,10,2013-03-06 04:30:00
10:50 PM,30.2,23.0,75,30.39,10.0,Calm,Calm,-,N/A,,Clear,0,2013-03-06 04:50:00
11:10 PM,24.8,21.2,86,30.40,10.0,Calm,Calm,-,N/A,,Clear,0,2013-03-06 05:10:00
11:30 PM,28.4,24.8,86,30.40,10.0,NW,3.5,-,N/A,,Clear,310,2013-03-06 05:30:00
11:50 PM,28.4,23.0,80,30.39,10.0,WNW,4.6,-,N/A,,Clear,300,2013-03-06 05:50:00